Regional Weather Roundup
Issued by NWS

Home | Current Version | Previous Version | Graphics & Text | Print | Product List | Glossary On
Versions: 1 2 3 4 5 6 7 8 9 10 11 12 13 14 15 16 17 18 19 20 21 22 23 24 25 26 27 28 29 30 31 32 33 34 35 36 37 38 39 40 41 42 43 44 45 46 47 48 49 50
000
ASUS43 KLOT 291808
RWRIL

ILLINOIS REGIONAL WEATHER ROUNDUP
NATIONAL WEATHER SERVICE CHICAGO/ROMEOVILLE IL
100 PM CDT SAT AUG 29 2015

NOTE: "FAIR" INDICATES FEW OR NO CLOUDS BELOW 12,000 FEET WITH NO
SIGNIFICANT WEATHER AND/OR OBSTRUCTIONS TO VISIBILITY.

* THESE STATIONS ARE NOT UNDER NWS QUALITY CONTROL. THEY ALSO MAY NOT
  REPORT WEATHER SUCH AS PRECIPITATION OR FOG.

ILZ001-002-007-009-015-016-024-291900-
NORTHWEST ILLINOIS

CITY           SKY/WX    TMP DP  RH WIND       PRES   REMARKS
MOLINE         PTSUNNY   73  67  81 CALM      30.00S HAZE
6HR MIN TEMP:  69; 6HR MAX TEMP:  73; 6HR PCP:  0.01;

STERLING*      CLOUDY    72  66  83 SW3       29.99F
SAVANNA*       CLOUDY    71  65  81 CALM      30.00F
$$

ILZ003-004-008-010-011-017-018-291900-
NORTH CENTRAL ILLINOIS

CITY           SKY/WX    TMP DP  RH WIND       PRES   REMARKS
ROCKFORD       CLOUDY    70  64  81 VRB3      30.02F
6HR MIN TEMP:  63; 6HR MAX TEMP:  70; 6HR PCP:  0.44;

FREEPORT*      CLOUDY    67  64  92 SE3       30.03F
ROCHELLE*      CLOUDY    68  65  90 S5        30.02F
DE KALB*       CLOUDY    70  67  91 S9        30.02F
PERU*          CLOUDY    73  65  76 CALM      30.02F
$$

ILZ005-006-012>014-019>023-291900-
NORTHEAST ILLINOIS

CITY           SKY/WX    TMP DP  RH WIND       PRES   REMARKS
CHICAGO-OHARE  LGT RAIN  67  65  93 S7        30.00F FOG
6HR MIN TEMP:  63; 6HR MAX TEMP:  67; 6HR PCP:  0.12;

CHICAGO-MIDWAY CLOUDY    74  65  73 S7        30.02F
6HR MIN TEMP:  66; 6HR MAX TEMP:  74; 6HR PCP:  0.07;

AURORA         CLOUDY    68  66  93 SE7       30.02F FOG
6HR MIN TEMP:  64; 6HR MAX TEMP:  69; 6HR PCP:  0.65;

LANSING*       CLOUDY    73  65  74 S9        30.04F
JOLIET*        CLOUDY    74  66  77 S5        30.02F
WAUKEGAN       CLOUDY    65  64  97 VRB6      30.02F FOG
6HR MIN TEMP:  60; 6HR MAX TEMP:  65; 6HR PCP:  0.63;

DUPAGE AIRPORT LGT RAIN  67  64  90 S7        30.02F FOG
6HR MIN TEMP:  64; 6HR MAX TEMP:  67; 6HR PCP:  0.63;

KANKAKEE*      CLOUDY    71  67  85 CALM      30.04F
WHEELING       CLOUDY    68  65  90 CALM      30.03S FOG
6HR MIN TEMP:  63; 6HR MAX TEMP:  68; 6HR PCP:  0.33;

MORRIS*        CLOUDY    72  66  81 S6        30.01F
ROMEOVILLE*    CLOUDY    72  65  77 SW9       30.03S
NORTHERLY ISL    N/A     69  64  84 SW8         N/A
$$

LMZ740>746-291900-
SOUTHERN LAKE MICHIGAN

STATION/POSITION SKY/WX   TEMP    WIND        PRES    VSBY  WAVE
                          AIR SEA DIR/SP/G                  HT/PER
                          (F)     (DEG/KT/KT) (MB)    (MI)  (FT/S)
SOUTHERN BUOY              66 68  120/ 14/ 16 1016.8F         2/ 3
WILMETTE HARBOR            60 56  310/  4/  6   N/A           2/ 4
HARRISON CRIB              67     140/ 13/ 15   N/A
BURNHAM HARBOR             71     210/ 10/ 10   N/A
BURNS HARBOR               71     170/  8/ 15 1017.9S
MICHIGAN CITY              67     100/  8/ 10   N/A
MICHIGAN CITY 6N           69 71  170/ 10/ 12   N/A           1
ST. JOSEPH                 68 70  220/ 14/ 16   N/A           2/ 3
$$

ILZ025>027-034>036-040-047-049-050-058-095>099-291900-
WEST-CENTRAL ILLINOIS

CITY           SKY/WX    TMP DP  RH WIND       PRES   REMARKS
QUINCY         CLOUDY    80  66  62 W6        30.00S HX  82
GALESBURG*     CLOUDY    73  65  76 W3        30.01F
MACOMB*        PTSUNNY   76  66  70 W3        30.03S
JACKSONVILLE*  MOSUNNY   82  67  61 SW3       30.01F HX  84
PITTSFIELD*    MOSUNNY   82  67  59 W3        30.02S HX  84
$$

ILZ028>032-037-038-041>044-048-051>054-059>061-291900-
CENTRAL ILLINOIS

CITY           SKY/WX    TMP DP  RH WIND       PRES   REMARKS
PONTIAC        CLOUDY    76  69  79 S6        30.03F
BLOOMINGTON    CLOUDY    80  67  64 SW12      30.04F HX  82
DECATUR        CLOUDY    78  66  66 S7        30.04S HX  80
PEORIA         PTSUNNY   80  65  59 VRB3      30.01F HX  82
6HR MIN TEMP:  69; 6HR MAX TEMP:  81;

LACON*         CLOUDY    75  65  71 CALM      30.00F
LINCOLN*       CLOUDY    80  66  62 S5        30.02S HX  82
SPRINGFIELD    PTSUNNY   78  67  68 S7        30.02F HX  80
6HR MIN TEMP:  69; 6HR MAX TEMP:  79; 6HR PCP: TRACE;

TAYLORVILLE    CLOUDY    77  66  69 S8        30.04S
$$

ILZ033-039-045-046-055>057-062-063-291900-
EAST-CENTRAL ILLINOIS

CITY           SKY/WX    TMP DP  RH WIND       PRES   REMARKS
CHAMPAIGN      CLOUDY    80  68  66 S6        30.05S HX  83
RANTOUL*       LGT RAIN  78  69  73 S5        30.05F HX  80
MATTOON        CLOUDY    80  66  62 S8        30.05F HX  82
PARIS*         CLOUDY    82  68  62 S8        30.06F HX  84
$$

ILZ079-100>102-291900-
SOUTHWEST ILLINOIS

CITY           SKY/WX    TMP DP  RH WIND       PRES   REMARKS
BELLEVILLE     CLOUDY    78  69  75 VRB3      30.03F HX  80
CAHOKIA*       CLOUDY    79  65  62 S8        30.03F HX  81
SPARTA*        CLOUDY    79  65  60 SW9       30.06F HX  81
$$

ILZ064>066-069>071-074>076-080>082-084>086-088>090-092>094-291900-
SOUTH-CENTRAL ILLINOIS

CITY           SKY/WX    TMP DP  RH WIND       PRES   REMARKS
CARBONDALE     CLOUDY    80  68  66 SW10      30.06F HX  83
6HR MIN TEMP:  66; 6HR MAX TEMP:  82;

CAIRO*         PTSUNNY   82  72  71 S10G17    30.06F HX  87
EFFINGHAM*     CLOUDY    81  65  59 SE6       30.06S HX  83
MARION         CLOUDY    82  72  69 S14       30.07F HX  87
MT. VERNON     CLOUDY    79  66  65 S7        30.07F HX  81
SALEM*         CLOUDY    80  67  64 S8        30.05S HX  82
METROPOLIS*    PTSUNNY   84  75  72 S3        30.07F HX  92
$$

ILZ067-068-072-073-078-083-087-091-291900-
SOUTHEAST ILLINOIS

CITY           SKY/WX    TMP DP  RH WIND       PRES   REMARKS
LAWRENCEVILLE  CLOUDY    82  68  62 S9        30.07F HX  85
FLORA*         CLOUDY    80  66  63 S9        30.06S HX  82
FAIRFIELD*     CLOUDY    77  69  77 S8        30.06S
HARRISBURG*    CLOUDY    86  71  61 SW14      30.07F HX  92
ROBINSON*      CLOUDY    79  68  70 SW7       30.08S HX  81
CARMI*         CLOUDY    79  72  80 S5        30.06F HX  82
$$

ABBREVIATIONS USED IN REMARKS
   TC - TEMPERATURE IN CELSIUS
  WCI - WIND CHILL INDEX
   HX - HEAT INDEX
  VSB - VISIBILITY
$$



USA.gov is the U.S. government's official web portal to all federal, state and local government web resources and services.